Weather History for KNQA - August, 2013

Change the Weather History Date:

Sunday, August 4, 2013

  Actual Average Record
Temperature  
Mean Temperature 79 °F -  
Max Temperature 89 °F 89 °F 107 °F (2010)
Min Temperature 69 °F 71 °F 68 °F (2014)
Cooling Degree Days 14    
Growing Degree Days 29 (Base 50)    
Moisture  
Dew Point 73 °F    
Average Humidity 85    
Maximum Humidity 100    
Minimum Humidity 62    
Precipitation  
Precipitation 0.00 in - - ()
Sea Level Pressure  
Sea Level Pressure 30.08 in    
Wind  
Wind Speed 2 mph (NNE)    
Max Wind Speed 7 mph    
Max Gust Speed -    
Visibility 9 miles    
Events      
Averages and records for this station are not official NWS values.
T = Trace of Precipitation, MM = Missing Value Source: NWS Daily Summary

Daily Weather History Graph

Daily Weather History Graph

Search for Another Location

Airport or City:

Trip Planner

Search our weather history database for the weather conditions in past years. The results will help you decide how hot, cold, wet, or windy it might be!

Date:

Astronomy

Aug. 04, 2013 Rise Set
Actual Time 6:10 AM CDT 7:59 PM CDT
Civil Twilight 5:42 AM CDT 8:27 PM CDT
Nautical Twilight 5:09 AM CDT 9:00 PM CDT
Astronomical Twilight 4:33 AM CDT 9:36 PM CDT
Moon 4:12 AM CDT (8/4) 6:23 PM CDT (8/4)
Length of Visible Light 14h 44m
Length of Day
13h 49m
Waning Crescent, 4% of the Moon is Illuminated
Aug 4
Waning Crescent
Aug 6
New
Aug 14
First Quarter
Aug 20
Full
Aug 28
Last Quarter

Hourly Weather History & Observations

Time (CDT) Temp. Heat Index Dew Point Humidity Pressure Visibility Wind Dir Wind Speed Gust Speed Precip Events Conditions
12:55 AM 71.6 °F - 71.6 °F 100% 30.08 in 4.0 mi Calm Calm - N/A   Clear
1:55 AM 71.6 °F - 71.6 °F 100% 30.07 in 9.0 mi Calm Calm - N/A   Clear
2:55 AM 71.6 °F - 71.6 °F 100% 30.06 in 10.0 mi NNW 3.5 mph - N/A   Clear
3:15 AM 71.6 °F - 71.6 °F 100% 30.06 in 10.0 mi Calm Calm - N/A   Clear
3:35 AM 71.6 °F - 71.6 °F 100% 30.05 in 7.0 mi Calm Calm - N/A   Clear
3:55 AM 71.6 °F - 71.6 °F 100% 30.05 in 7.0 mi Calm Calm - N/A   Clear
4:15 AM 71.6 °F - 71.6 °F 100% 30.06 in 8.0 mi Calm Calm - N/A   Clear
4:35 AM 71.6 °F - 71.6 °F 100% 30.07 in 4.0 mi Calm Calm - N/A   Clear
4:55 AM 71.6 °F - 71.6 °F 100% 30.07 in 5.0 mi Calm Calm - N/A   Clear
5:15 AM 71.6 °F - 71.6 °F 100% 30.08 in 10.0 mi Calm Calm - N/A   Clear
5:35 AM 69.8 °F - 69.8 °F 100% 30.09 in 10.0 mi Calm Calm - N/A   Clear
5:55 AM 71.6 °F - 71.6 °F 100% 30.10 in 10.0 mi Calm Calm - N/A   Clear
6:55 AM 73.4 °F - 71.6 °F 94% 30.10 in 10.0 mi North 3.5 mph - N/A   Scattered Clouds
7:55 AM 75.2 °F - 73.4 °F 94% 30.10 in 10.0 mi North 4.6 mph - N/A   Scattered Clouds
8:55 AM 80.6 °F 85.4 °F 73.4 °F 79% 30.11 in 10.0 mi ENE 4.6 mph - N/A   Scattered Clouds
9:55 AM 82.4 °F 88.2 °F 73.4 °F 74% 30.12 in 10.0 mi NE 4.6 mph - N/A   Scattered Clouds
10:55 AM 84.2 °F 92.3 °F 75.2 °F 74% 30.12 in 10.0 mi Variable 4.6 mph - N/A   Scattered Clouds
11:55 AM 87.8 °F 97.6 °F 75.2 °F 66% 30.11 in 10.0 mi Variable 3.5 mph - N/A   Scattered Clouds
12:55 PM 87.8 °F 97.6 °F 75.2 °F 66% 30.10 in 10.0 mi Variable 4.6 mph - N/A   Scattered Clouds
1:55 PM 87.8 °F 95.6 °F 73.4 °F 62% 30.09 in 10.0 mi North 3.5 mph - N/A   Mostly Cloudy
2:55 PM 87.8 °F 95.6 °F 73.4 °F 62% 30.07 in 10.0 mi North 6.9 mph - N/A   Mostly Cloudy
3:55 PM 89.6 °F 99.8 °F 75.2 °F 62% 30.06 in 10.0 mi Variable 6.9 mph - N/A   Mostly Cloudy
4:55 PM 84.2 °F 90.9 °F 73.4 °F 70% 30.06 in 10.0 mi North 4.6 mph - N/A   Mostly Cloudy
5:55 PM 84.2 °F 90.9 °F 73.4 °F 70% 30.05 in 10.0 mi North 6.9 mph - N/A   Mostly Cloudy
6:55 PM 82.4 °F 88.2 °F 73.4 °F 74% 30.06 in 10.0 mi North 5.8 mph - N/A   Overcast
7:55 PM 78.8 °F - 73.4 °F 83% 30.06 in 10.0 mi Calm Calm - N/A   Clear
8:55 PM 78.8 °F - 73.4 °F 83% 30.07 in 10.0 mi North 4.6 mph - N/A   Clear
9:55 PM 78.8 °F - 71.6 °F 78% 30.08 in 10.0 mi Calm Calm - N/A   Clear
10:55 PM 77.0 °F - 71.6 °F 83% 30.08 in 10.0 mi NE 3.5 mph - N/A   Clear
11:55 PM 77.0 °F - 69.8 °F 78% 30.07 in 10.0 mi ENE 4.6 mph - N/A   Clear